This is the latest recevied weather packets stored in our database for station/object KK4WXG. If no packets are shown the sender has not sent any weather packets the latest 10 day(s).
| Time | Temp. | Humidity | Pressure | Rain* | Wind** | Luminosity | Snow |
|---|---|---|---|---|---|---|---|
| 1777908538 | 20° C | 38% | 1012.6 hPa | 0 mm | - | 899 W/m² | - |
| 1777908235 | 20° C | 41% | 1012.8 hPa | 0 mm | - | 894 W/m² | - |
| 1777907932 | 19.44° C | 38% | 1013 hPa | 0 mm | - | 881 W/m² | - |
| 1777907627 | 20° C | 44% | 1012.8 hPa | 0 mm | - | 870 W/m² | - |
| 1777907323 | 19.44° C | 40% | 1013 hPa | 0 mm | - | 856 W/m² | - |
| 1777907019 | 19.44° C | 40% | 1013.3 hPa | 0 mm | - | 846 W/m² | - |
| 1777906717 | 18.89° C | 42% | 1013 hPa | 0 mm | - | 834 W/m² | - |
| 1777906413 | 18.89° C | 44% | 1013 hPa | 0 mm | - | 824 W/m² | - |
| 1777906110 | 19.44° C | 41% | 1013.2 hPa | 0 mm | - | 816 W/m² | - |
| 1777905806 | 18.89° C | 41% | 1013 hPa | 0 mm | - | 807 W/m² | - |
| 1777905504 | 18.89° C | 40% | 1012.9 hPa | 0 mm | - | 794 W/m² | - |
| 1777905201 | 18.89° C | 39% | 1013.4 hPa | 0 mm | - | 780 W/m² | - |
| 1777904898 | 18.33° C | 40% | 1013.2 hPa | 0 mm | - | 766 W/m² | - |
| 1777904595 | 18.33° C | 39% | 1013.3 hPa | 0 mm | - | 751 W/m² | - |
| 1777904292 | 17.78° C | 42% | 1013.2 hPa | 0 mm | - | 736 W/m² | - |
| 1777903989 | 17.78° C | 39% | 1013.1 hPa | 0 mm | - | 721 W/m² | - |
| 1777903686 | 18.33° C | 37% | 1013.3 hPa | 0 mm | - | 706 W/m² | - |
| 1777903382 | 18.33° C | 41% | 1013.2 hPa | 0 mm | - | 691 W/m² | - |
| 1777903078 | 17.78° C | 40% | 1013.2 hPa | 0 mm | - | 673 W/m² | - |
| 1777902775 | 17.78° C | 38% | 1013.2 hPa | 0 mm | - | 654 W/m² | - |
| 1777902473 | 17.22° C | 39% | 1013 hPa | 0 mm | - | 639 W/m² | - |
| 1777902169 | 17.22° C | 44% | 1013.2 hPa | 0 mm | - | 621 W/m² | - |
| 1777901867 | 17.22° C | 40% | 1013.2 hPa | 0 mm | - | 598 W/m² | - |
| 1777901564 | 16.67° C | 39% | 1013.2 hPa | 0 mm | - | 583 W/m² | - |
| 1777901262 | 16.67° C | 43% | 1013.3 hPa | 0 mm | - | 566 W/m² | - |
* Rain latest hour (hover to see other rain measurements)
** Current wind speed in m/s (hover to see current wind gust speed)